| time (UTC) | temp C | wind direction | speed KPH | gust KPH | rain 1hr cm | rain 24hr cm | rain mn cm | humidity % | barometer mb |
| 20260904154902 | 28 | 230 | 0.0 | 0.0 | 0.00 | 0.00 | 0.00 | 57 | 1010.9 |
| 20260904154357 | 29 | 215 | 0.0 | 0.0 | 0.00 | 0.00 | 0.00 | 56 | 1011.0 |
| 20260904153853 | 29 | 176 | 0.0 | 0.0 | 0.00 | 0.00 | 0.00 | 57 | 1011.0 |
| 20260904153348 | 29 | 199 | 0.0 | 0.0 | 0.00 | 0.00 | 0.00 | 57 | 1011.1 |
| 20260904152845 | 29 | 192 | 0.0 | 0.0 | 0.00 | 0.00 | 0.00 | 58 | 1011.1 |
| 20260904152344 | 28 | 226 | 0.0 | 0.0 | 0.00 | 0.00 | 0.00 | 58 | 1011.3 |
| 20260904151839 | 28 | 201 | 0.0 | 0.0 | 0.00 | 0.00 | 0.00 | 57 | 1011.2 |
| 20260904151338 | 29 | 205 | 0.0 | 0.0 | 0.00 | 0.00 | 0.00 | 58 | 1011.2 |
| 20260904150834 | 28 | 219 | 0.0 | 0.0 | 0.00 | 0.00 | 0.00 | 63 | 1011.4 |
| 20260904150329 | 28 | 128 | 0.0 | 0.0 | 0.00 | 0.00 | 0.00 | 63 | 1011.3 |
| 20260904145826 | 28 | 193 | 0.0 | 0.0 | 0.00 | 0.00 | 0.00 | 63 | 1011.3 |
| 20260904145324 | 28 | 197 | 0.0 | 0.0 | 0.00 | 0.00 | 0.00 | 63 | 1011.5 |
| 20260904144819 | 28 | 163 | 0.0 | 0.0 | 0.00 | 0.00 | 0.00 | 62 | 1011.3 |
| 20260904144314 | 28 | 216 | 0.0 | 0.0 | 0.00 | 0.00 | 0.00 | 63 | 1011.2 |
| 20260904143809 | 28 | 223 | 0.0 | 0.0 | 0.00 | 0.00 | 0.00 | 63 | 1011.3 |
| 20260904143306 | 28 | 235 | 0.0 | 0.0 | 0.00 | 0.00 | 0.00 | 64 | 1011.1 |
| 20260904142802 | 28 | 271 | 0.0 | 0.0 | 0.00 | 0.00 | 0.00 | 65 | 1011.2 |
| 20260904142257 | 28 | 220 | 0.0 | 0.0 | 0.00 | 0.00 | 0.00 | 64 | 1011.2 |
| 20260904141752 | 28 | 200 | 0.0 | 0.0 | 0.00 | 0.00 | 0.00 | 64 | 1011.1 |
| 20260904141248 | 27 | 229 | 0.0 | 0.0 | 0.00 | 0.00 | 0.00 | 68 | 1011.1 |
| 20260904140743 | 27 | 176 | 0.0 | 0.0 | 0.00 | 0.00 | 0.00 | 68 | 1011.0 |
| 20260904140238 | 27 | 216 | 0.0 | 0.0 | 0.00 | 0.00 | 0.00 | 69 | 1011.1 |
| 20260904135737 | 27 | 92 | 0.0 | 0.0 | 0.00 | 0.00 | 0.00 | 69 | 1011.2 |
| 20260904135232 | 27 | 238 | 0.0 | 0.0 | 0.00 | 0.00 | 0.00 | 70 | 1010.9 |
| 20260904134728 | 27 | 186 | 0.0 | 0.0 | 0.00 | 0.00 | 0.00 | 70 | 1010.8 |
| 20260904134228 | 27 | 209 | 0.0 | 0.0 | 0.00 | 0.00 | 0.00 | 70 | 1010.8 |
| 20260904133722 | 27 | 161 | 0.0 | 0.0 | 0.00 | 0.00 | 0.00 | 70 | 1010.8 |
| 20260904133219 | 26 | 161 | 0.0 | 0.0 | 0.00 | 0.00 | 0.00 | 72 | 1010.8 |
| 20260904132718 | 27 | 230 | 0.0 | 0.0 | 0.00 | 0.00 | 0.00 | 71 | 1010.7 |
| 20260904132214 | 26 | 219 | 0.0 | 0.0 | 0.00 | 0.00 | 0.00 | 71 | 1010.8 |
| 20260904131713 | 26 | 212 | 0.0 | 0.0 | 0.00 | 0.00 | 0.00 | 73 | 1010.8 |
| 20260904131208 | 26 | 207 | 0.0 | 0.0 | 0.00 | 0.00 | 0.00 | 74 | 1010.8 |
| 20260904130703 | 26 | 303 | 0.0 | 0.0 | 0.00 | 0.00 | 0.00 | 74 | 1010.9 |
| 20260904130202 | 26 | 194 | 0.0 | 0.0 | 0.00 | 0.00 | 0.00 | 75 | 1010.9 |
| 20260904125659 | 26 | 232 | 0.0 | 0.0 | 0.00 | 0.00 | 0.00 | 76 | 1010.7 |
| 20260904125154 | 26 | 186 | 0.0 | 0.0 | 0.00 | 0.00 | 0.00 | 76 | 1010.7 |
| 20260904124649 | 26 | 217 | 0.0 | 0.0 | 0.00 | 0.00 | 0.00 | 77 | 1010.8 |
| 20260904124144 | 26 | 250 | 0.0 | 0.0 | 0.00 | 0.00 | 0.00 | 77 | 1010.6 |
| 20260904123638 | 26 | 217 | 0.0 | 0.0 | 0.00 | 0.00 | 0.00 | 78 | 1010.7 |
| 20260904123135 | 26 | 237 | 0.0 | 0.0 | 0.00 | 0.00 | 0.00 | 78 | 1010.7 |
| 20260904122629 | 25 | 173 | 0.0 | 0.0 | 0.00 | 0.00 | 0.00 | 79 | 1010.6 |
| 20260904122124 | 25 | 214 | 0.0 | 0.0 | 0.00 | 0.00 | 0.00 | 81 | 1010.7 |
| 20260904121619 | 25 | 137 | 0.0 | 0.0 | 0.00 | 0.00 | 0.00 | 82 | 1010.7 |
| 20260904121115 | 25 | 181 | 0.0 | 0.0 | 0.00 | 0.00 | 0.00 | 83 | 1010.7 |
| 20260904120611 | 25 | 204 | 0.0 | 0.0 | 0.00 | 0.00 | 0.00 | 84 | 1010.5 |
| 20260904120107 | 25 | 172 | 0.0 | 0.0 | 0.00 | 0.00 | 0.00 | 85 | 1010.4 |
| 20260904115602 | 25 | 224 | 0.0 | 0.0 | 0.00 | 0.00 | 0.00 | 86 | 1010.5 |
| 20260904115057 | 24 | 200 | 0.0 | 0.0 | 0.00 | 0.00 | 0.00 | 87 | 1010.6 |
| 20260904114556 | 24 | 170 | 0.0 | 0.0 | 0.00 | 0.00 | 0.00 | 88 | 1010.8 |
| 20260904114056 | 24 | 191 | 0.0 | 0.0 | 0.00 | 0.00 | 0.00 | 88 | 1010.7 |
| 20260904113551 | 24 | 138 | 0.0 | 0.0 | 0.00 | 0.00 | 0.00 | 89 | 1010.6 |
| 20260904113050 | 24 | 168 | 0.0 | 0.0 | 0.00 | 0.00 | 0.00 | 89 | 1010.4 |
| 20260904112546 | 23 | 174 | 0.0 | 0.0 | 0.00 | 0.00 | 0.00 | 90 | 1010.6 |
| 20260904112042 | 23 | 165 | 0.0 | 0.0 | 0.00 | 0.00 | 0.00 | 90 | 1010.3 |
| 20260904111537 | 23 | 173 | 0.0 | 0.0 | 0.00 | 0.00 | 0.00 | 90 | 1010.3 |
| 20260904111032 | 23 | 145 | 0.0 | 0.0 | 0.00 | 0.00 | 0.00 | 90 | 1010.4 |
| 20260904110526 | 23 | 119 | 0.0 | 0.0 | 0.00 | 0.00 | 0.00 | 90 | 1010.3 |
| 20260904110022 | 23 | 59 | 0.0 | 0.0 | 0.00 | 0.00 | 0.00 | 90 | 1010.2 |
| 20260904105516 | 23 | 121 | 0.0 | 0.0 | 0.00 | 0.00 | 0.00 | 90 | 1010.3 |
| 20260904105012 | 23 | 167 | 0.0 | 0.0 | 0.00 | 0.00 | 0.00 | 91 | 1010.0 |
| 20260904104507 | 23 | 198 | 0.0 | 0.0 | 0.00 | 0.00 | 0.00 | 91 | 1010.1 |
| 20260904104002 | 23 | 211 | 0.0 | 0.0 | 0.00 | 0.00 | 0.00 | 90 | 1010.2 |
| 20260904103458 | 23 | 216 | 0.0 | 0.0 | 0.00 | 0.00 | 0.00 | 90 | 1010.2 |
| 20260904102954 | 23 | 184 | 0.0 | 0.0 | 0.00 | 0.00 | 0.00 | 90 | 1009.9 |
| 20260904102449 | 23 | 156 | 0.0 | 0.0 | 0.00 | 0.00 | 0.00 | 90 | 1010.1 |
| 20260904101944 | 23 | 187 | 0.0 | 0.0 | 0.00 | 0.00 | 0.00 | 90 | 1010.1 |
| 20260904101441 | 23 | 174 | 0.0 | 0.0 | 0.00 | 0.00 | 0.00 | 89 | 1009.8 |
| 20260904100937 | 23 | 191 | 0.0 | 0.0 | 0.00 | 0.00 | 0.00 | 89 | 1010.1 |
| 20260904100432 | 23 | 189 | 0.0 | 0.0 | 0.00 | 0.00 | 0.00 | 89 | 1009.9 |
| 20260904095926 | 23 | 167 | 0.0 | 0.0 | 0.00 | 0.00 | 0.00 | 89 | 1010.1 |
| 20260904095421 | 23 | 169 | 0.0 | 0.0 | 0.00 | 0.00 | 0.00 | 90 | 1009.7 |
| 20260904094916 | 23 | 175 | 0.0 | 0.0 | 0.00 | 0.00 | 0.00 | 89 | 1009.8 |
| 20260904094411 | 23 | 120 | 0.0 | 0.0 | 0.00 | 0.00 | 0.00 | 89 | 1009.8 |
| 20260904093908 | 23 | 106 | 0.0 | 0.0 | 0.00 | 0.00 | 0.00 | 88 | 1009.9 |
| 20260904093407 | 23 | 123 | 0.0 | 0.0 | 0.00 | 0.00 | 0.00 | 88 | 1009.8 |
| 20260904092857 | 23 | 154 | 0.0 | 0.0 | 0.00 | 0.00 | 0.00 | 88 | 1009.6 |
| 20260904092354 | 23 | 185 | 0.0 | 0.0 | 0.00 | 0.00 | 0.00 | 87 | 1009.6 |
| 20260904091850 | 23 | 103 | 0.0 | 0.0 | 0.00 | 0.00 | 0.00 | 87 | 1009.8 |
| 20260904091345 | 23 | 64 | 0.0 | 0.0 | 0.00 | 0.00 | 0.00 | 87 | 1009.9 |
| 20260904090839 | 23 | 163 | 0.0 | 0.0 | 0.00 | 0.00 | 0.00 | 87 | 1009.8 |
| 20260904090336 | 24 | 112 | 0.0 | 0.0 | 0.00 | 0.00 | 0.00 | 87 | 1009.8 |
| 20260904085830 | 24 | 132 | 0.0 | 0.0 | 0.00 | 0.00 | 0.00 | 86 | 1009.6 |
| 20260904085326 | 24 | 175 | 0.0 | 0.0 | 0.00 | 0.00 | 0.00 | 86 | 1009.7 |
| 20260904084826 | 24 | 145 | 0.0 | 0.0 | 0.00 | 0.00 | 0.00 | 86 | 1009.9 |
| 20260904084322 | 24 | 183 | 0.0 | 0.0 | 0.00 | 0.00 | 0.00 | 86 | 1009.9 |
| 20260904083818 | 24 | 183 | 0.0 | 0.0 | 0.00 | 0.00 | 0.00 | 86 | 1009.8 |
| 20260904083314 | 24 | 161 | 0.0 | 0.0 | 0.00 | 0.00 | 0.00 | 86 | 1010.1 |
| 20260904082809 | 24 | 164 | 0.0 | 0.0 | 0.00 | 0.00 | 0.00 | 86 | 1009.9 |
| 20260904082305 | 24 | 147 | 0.0 | 0.0 | 0.00 | 0.00 | 0.00 | 87 | 1009.6 |
| 20260904081759 | 24 | 188 | 0.0 | 0.0 | 0.00 | 0.00 | 0.00 | 87 | 1010.1 |
| 20260904081254 | 24 | 182 | 0.0 | 0.0 | 0.00 | 0.00 | 0.00 | 87 | 1009.8 |
| 20260904080750 | 24 | 159 | 0.0 | 0.0 | 0.00 | 0.00 | 0.00 | 86 | 1009.8 |
| 20260904080246 | 24 | 123 | 0.0 | 0.0 | 0.00 | 0.00 | 0.00 | 86 | 1010.0 |
| 20260904075742 | 25 | 157 | 0.0 | 0.0 | 0.00 | 0.00 | 0.00 | 85 | 1009.9 |
| 20260904075237 | 25 | 159 | 0.0 | 0.0 | 0.00 | 0.00 | 0.00 | 85 | 1009.7 |
| 20260904074736 | 25 | 119 | 0.0 | 0.0 | 0.00 | 0.00 | 0.00 | 85 | 1010.0 |
| 20260904074230 | 25 | 127 | 0.0 | 0.0 | 0.00 | 0.00 | 0.00 | 85 | 1009.9 |
| 20260904073725 | 25 | 169 | 0.0 | 0.0 | 0.00 | 0.00 | 0.00 | 84 | 1009.7 |
| 20260904073216 | 25 | 165 | 0.0 | 0.0 | 0.00 | 0.00 | 0.00 | 84 | 1009.3 |
| 20260904072712 | 25 | 191 | 0.0 | 0.0 | 0.00 | 0.00 | 0.00 | 84 | 1009.5 |
| 20260904072206 | 25 | 128 | 0.0 | 0.0 | 0.00 | 0.00 | 0.00 | 83 | 1009.1 |
| 20260904071702 | 25 | 107 | 0.0 | 0.0 | 0.00 | 0.00 | 0.00 | 83 | 1009.1 |
| 20260904071157 | 25 | 106 | 0.0 | 0.0 | 0.00 | 0.00 | 0.00 | 83 | 1009.2 |
| 20260904070656 | 25 | 181 | 0.0 | 0.0 | 0.00 | 0.00 | 0.00 | 83 | 1009.4 |
| 20260904070155 | 25 | 120 | 0.0 | 0.0 | 0.00 | 0.00 | 0.00 | 83 | 1009.4 |
| 20260904065650 | 25 | 135 | 0.0 | 0.0 | 0.00 | 0.00 | 0.00 | 83 | 1009.5 |
| 20260904065147 | 25 | 150 | 0.0 | 0.0 | 0.00 | 0.00 | 0.00 | 84 | 1009.5 |
| 20260904064636 | 25 | 178 | 0.0 | 0.0 | 0.00 | 0.00 | 0.00 | 84 | 1009.5 |
| 20260904064131 | 26 | 181 | 0.0 | 0.0 | 0.00 | 0.00 | 0.00 | 83 | 1009.8 |
| 20260904063627 | 26 | 148 | 0.0 | 0.0 | 0.00 | 0.00 | 0.00 | 81 | 1010.1 |
| 20260904063122 | 26 | 166 | 0.0 | 0.0 | 0.00 | 0.00 | 0.00 | 80 | 1009.9 |
| 20260904062619 | 26 | 175 | 0.0 | 0.0 | 0.00 | 0.00 | 0.00 | 81 | 1010.2 |
| 20260904062114 | 26 | 186 | 0.0 | 0.0 | 0.00 | 0.00 | 0.00 | 84 | 1010.1 |
| 20260904061609 | 26 | 168 | 0.0 | 0.0 | 0.00 | 0.00 | 0.00 | 87 | 1009.9 |
| 20260904061106 | 26 | 38 | 0.0 | 0.0 | 0.00 | 0.00 | 0.00 | 87 | 1010.3 |
| 20260904060602 | 26 | 137 | 0.0 | 0.0 | 0.00 | 0.00 | 0.00 | 87 | 1010.1 |
| 20260904060057 | 26 | 149 | 0.0 | 0.0 | 0.00 | 0.00 | 0.00 | 86 | 1010.2 |
| 20260904055552 | 26 | 181 | 0.0 | 0.0 | 0.00 | 0.00 | 0.00 | 85 | 1009.9 |
| 20260904055047 | 26 | 323 | 0.0 | 0.0 | 0.00 | 0.00 | 0.00 | 84 | 1010.0 |
| 20260904054543 | 26 | 141 | 0.0 | 0.0 | 0.00 | 0.00 | 0.00 | 84 | 1010.1 |
| 20260904054039 | 26 | 122 | 0.0 | 0.0 | 0.00 | 0.00 | 0.00 | 84 | 1010.4 |
| 20260904053538 | 26 | 110 | 0.0 | 0.0 | 0.00 | 0.00 | 0.00 | 84 | 1010.6 |
| 20260904053034 | 26 | 87 | 0.0 | 0.0 | 0.00 | 0.00 | 0.00 | 84 | 1010.6 |
| 20260904052530 | 26 | 118 | 0.0 | 0.0 | 0.00 | 0.00 | 0.00 | 84 | 1010.6 |
| 20260904052026 | 26 | 88 | 0.0 | 0.0 | 0.00 | 0.00 | 0.00 | 84 | 1010.6 |
| 20260904051522 | 26 | 93 | 0.0 | 0.0 | 0.00 | 0.00 | 0.00 | 84 | 1010.8 |
| 20260904051021 | 26 | 101 | 0.0 | 0.0 | 0.00 | 0.00 | 0.00 | 84 | 1010.5 |
| 20260904050518 | 26 | 126 | 0.0 | 0.0 | 0.00 | 0.00 | 0.00 | 84 | 1010.5 |
| 20260904050013 | 26 | 98 | 0.0 | 0.0 | 0.00 | 0.00 | 0.00 | 84 | 1010.7 |
| 20260904045508 | 26 | 65 | 0.0 | 0.0 | 0.00 | 0.00 | 0.00 | 84 | 1010.7 |
| 20260904045003 | 26 | 68 | 0.0 | 0.0 | 0.00 | 0.00 | 0.00 | 83 | 1010.8 |
| 20260904044459 | 26 | 120 | 0.0 | 0.0 | 0.00 | 0.00 | 0.00 | 83 | 1010.8 |
| 20260904043955 | 26 | 106 | 0.0 | 0.0 | 0.00 | 0.00 | 0.00 | 84 | 1011.0 |
| 20260904043451 | 26 | 144 | 0.0 | 0.0 | 0.00 | 0.00 | 0.00 | 84 | 1011.1 |
| 20260904042946 | 26 | 109 | 0.0 | 0.0 | 0.00 | 0.00 | 0.00 | 83 | 1011.0 |
| 20260904042442 | 26 | 100 | 0.0 | 0.0 | 0.00 | 0.00 | 0.00 | 83 | 1011.3 |
| 20260904041936 | 26 | 96 | 0.0 | 0.0 | 0.00 | 0.00 | 0.00 | 83 | 1011.3 |
| 20260904041428 | 26 | 116 | 0.0 | 0.0 | 0.00 | 0.00 | 0.00 | 83 | 1011.4 |
| 20260904040924 | 26 | 143 | 0.0 | 0.0 | 0.00 | 0.00 | 0.00 | 83 | 1011.5 |
| 20260904040423 | 26 | 86 | 0.0 | 0.0 | 0.00 | 0.00 | 0.00 | 83 | 1011.4 |
| 20260904035920 | 26 | 75 | 0.0 | 0.0 | 0.00 | 0.00 | 0.00 | 83 | 1011.4 |
| 20260904035415 | 27 | 132 | 0.0 | 0.0 | 0.00 | 0.00 | 0.00 | 82 | 1011.2 |
| 20260904034915 | 27 | 118 | 0.0 | 0.0 | 0.00 | 0.00 | 0.00 | 81 | 1011.5 |
| 20260904034410 | 27 | 111 | 0.0 | 0.0 | 0.00 | 0.00 | 0.00 | 81 | 1011.6 |
| 20260904033906 | 27 | 69 | 0.0 | 0.0 | 0.00 | 0.00 | 0.00 | 80 | 1011.4 |
| 20260904033402 | 27 | 66 | 0.0 | 0.0 | 0.00 | 0.00 | 0.00 | 80 | 1011.1 |
| 20260904032857 | 27 | 96 | 0.0 | 0.0 | 0.00 | 0.00 | 0.00 | 80 | 1011.3 |
| 20260904032352 | 27 | 123 | 0.0 | 0.0 | 0.00 | 0.00 | 0.00 | 79 | 1011.0 |
| 20260904031846 | 27 | 112 | 0.0 | 0.0 | 0.00 | 0.00 | 0.00 | 79 | 1011.3 |
| 20260904031342 | 27 | 75 | 0.0 | 0.0 | 0.00 | 0.00 | 0.00 | 78 | 1011.0 |
| 20260904030838 | 27 | 54 | 0.0 | 0.0 | 0.00 | 0.00 | 0.00 | 78 | 1011.2 |
| 20260904030333 | 27 | 91 | 0.0 | 0.0 | 0.00 | 0.00 | 0.00 | 78 | 1011.4 |
| 20260904025829 | 27 | 98 | 0.0 | 0.0 | 0.00 | 0.48 | 0.48 | 77 | 1011.5 |
| 20260904025325 | 27 | 4 | 0.0 | 0.0 | 0.00 | 0.48 | 0.48 | 77 | 1011.7 |
| 20260904024824 | 27 | 120 | 0.0 | 0.0 | 0.00 | 0.48 | 0.48 | 78 | 1011.6 |
| 20260904024319 | 27 | 114 | 0.0 | 0.0 | 0.00 | 0.48 | 0.48 | 78 | 1011.4 |
| 20260904023816 | 27 | 49 | 0.0 | 0.0 | 0.00 | 0.48 | 0.48 | 78 | 1011.6 |
| 20260904023312 | 27 | 78 | 0.0 | 0.0 | 0.00 | 0.48 | 0.48 | 78 | 1011.7 |
| 20260904022811 | 27 | 88 | 0.0 | 0.0 | 0.00 | 0.48 | 0.48 | 78 | 1011.5 |
| 20260904022308 | 27 | 76 | 0.0 | 0.0 | 0.00 | 0.48 | 0.48 | 78 | 1011.6 |
| 20260904021805 | 27 | 53 | 0.0 | 0.0 | 0.00 | 0.48 | 0.48 | 77 | 1011.8 |
| 20260904021259 | 27 | 102 | 0.0 | 0.0 | 0.00 | 0.48 | 0.48 | 76 | 1012.0 |
| 20260904020754 | 27 | 80 | 0.0 | 0.0 | 0.00 | 0.48 | 0.48 | 76 | 1012.2 |
| 20260904020254 | 27 | 124 | 0.0 | 0.0 | 0.00 | 0.48 | 0.48 | 76 | 1012.1 |
| 20260904015753 | 27 | 101 | 0.0 | 0.0 | 0.00 | 0.48 | 0.48 | 76 | 1012.1 |
| 20260904015248 | 27 | 125 | 0.0 | 0.0 | 0.00 | 0.48 | 0.48 | 76 | 1012.3 |
| 20260904014746 | 27 | 115 | 0.0 | 0.0 | 0.00 | 0.48 | 0.48 | 77 | 1012.2 |
| 20260904014242 | 27 | 120 | 0.0 | 0.0 | 0.00 | 0.48 | 0.48 | 77 | 1012.3 |
| 20260904013738 | 27 | 107 | 0.0 | 0.0 | 0.00 | 0.48 | 0.48 | 78 | 1012.2 |
| 20260904013234 | 27 | 104 | 0.0 | 0.0 | 0.00 | 0.48 | 0.48 | 78 | 1012.1 |
| 20260904012730 | 27 | 80 | 0.0 | 0.0 | 0.00 | 0.48 | 0.48 | 77 | 1012.2 |
| 20260904012229 | 27 | 87 | 0.0 | 0.0 | 0.00 | 0.48 | 0.48 | 76 | 1012.1 |
| 20260904011728 | 27 | 96 | 0.0 | 0.0 | 0.00 | 0.48 | 0.48 | 75 | 1011.9 |
| 20260904011224 | 27 | 89 | 0.0 | 0.0 | 0.00 | 0.48 | 0.48 | 74 | 1012.2 |
| 20260904010719 | 27 | 77 | 0.0 | 0.0 | 0.00 | 0.48 | 0.48 | 74 | 1011.7 |
| 20260904010215 | 27 | 109 | 0.0 | 0.0 | 0.00 | 0.48 | 0.48 | 75 | 1011.9 |
| 20260904005710 | 27 | 106 | 0.0 | 0.0 | 0.00 | 0.48 | 0.48 | 74 | 1011.9 |
| 20260904005207 | 27 | 96 | 0.0 | 0.0 | 0.00 | 0.48 | 0.48 | 74 | 1012.2 |
| 20260904004706 | 27 | 74 | 0.0 | 0.0 | 0.00 | 0.48 | 0.48 | 74 | 1011.7 |
| 20260904004201 | 27 | 99 | 0.0 | 0.0 | 0.00 | 0.48 | 0.48 | 74 | 1011.6 |
| 20260904003656 | 27 | 80 | 0.0 | 0.0 | 0.00 | 0.48 | 0.48 | 73 | 1011.6 |
| 20260904003153 | 28 | 101 | 0.0 | 0.0 | 0.00 | 0.48 | 0.48 | 73 | 1012.1 |
| 20260904002648 | 28 | 76 | 0.0 | 0.0 | 0.00 | 0.48 | 0.48 | 72 | 1012.0 |
| 20260904002143 | 28 | 94 | 0.0 | 0.0 | 0.00 | 0.48 | 0.48 | 71 | 1012.0 |
| 20260904001639 | 28 | 104 | 0.0 | 0.0 | 0.00 | 0.48 | 0.48 | 71 | 1011.9 |
| 20260904001137 | 28 | 96 | 0.0 | 0.0 | 0.00 | 0.48 | 0.48 | 70 | 1011.9 |
| 20260904000633 | 28 | 125 | 0.0 | 0.0 | 0.00 | 0.48 | 0.48 | 70 | 1011.8 |
| 20260904000128 | 28 | 101 | 0.0 | 0.0 | 0.00 | 0.48 | 0.48 | 70 | 1011.7 |
| 20260903235628 | 28 | 125 | 0.0 | 0.0 | 0.00 | 0.48 | 0.48 | 71 | 1011.5 |
| 20260903235124 | 28 | 118 | 0.0 | 0.0 | 0.00 | 0.48 | 0.48 | 70 | 1011.5 |
| 20260903234619 | 28 | 89 | 0.0 | 0.0 | 0.00 | 0.48 | 0.48 | 70 | 1011.3 |
| 20260903234115 | 28 | 115 | 0.0 | 0.0 | 0.00 | 0.48 | 0.48 | 69 | 1011.3 |
| 20260903233611 | 28 | 116 | 0.0 | 0.0 | 0.00 | 0.48 | 0.48 | 70 | 1011.4 |
| 20260903233106 | 28 | 107 | 0.0 | 0.0 | 0.00 | 0.48 | 0.48 | 70 | 1011.3 |
| 20260903232601 | 29 | 104 | 0.0 | 0.0 | 0.00 | 0.48 | 0.48 | 69 | 1011.3 |
| 20260903232056 | 29 | 98 | 0.0 | 0.0 | 0.00 | 0.48 | 0.48 | 68 | 1011.2 |
| 20260903231545 | 29 | 128 | 0.0 | 0.0 | 0.00 | 0.48 | 0.48 | 68 | 1011.3 |
| 20260903231045 | 29 | 139 | 0.0 | 0.0 | 0.00 | 0.48 | 0.48 | 67 | 1011.2 |
| 20260903230541 | 29 | 52 | 0.0 | 0.0 | 0.00 | 0.48 | 0.48 | 67 | 1011.5 |
| 20260903230039 | 29 | 186 | 0.0 | 0.0 | 0.00 | 0.48 | 0.48 | 67 | 1011.3 |
| 20260903225537 | 30 | 131 | 0.0 | 0.0 | 0.00 | 0.48 | 0.48 | 67 | 1011.4 |
| 20260903225033 | 30 | 125 | 0.0 | 0.0 | 0.00 | 0.48 | 0.48 | 66 | 1011.6 |
| 20260903224524 | 30 | 94 | 0.0 | 0.0 | 0.00 | 0.48 | 0.48 | 66 | 1011.5 |
| 20260903224020 | 30 | 147 | 0.0 | 0.0 | 0.00 | 0.48 | 0.48 | 66 | 1011.5 |
| 20260903223519 | 30 | 97 | 0.0 | 0.0 | 0.00 | 0.48 | 0.48 | 67 | 1011.4 |
| 20260903223018 | 30 | 115 | 0.0 | 0.0 | 0.00 | 0.48 | 0.48 | 67 | 1011.6 |
| 20260903222514 | 30 | 129 | 0.0 | 0.0 | 0.00 | 0.48 | 0.48 | 67 | 1011.6 |
| 20260903222012 | 30 | 139 | 0.0 | 0.0 | 0.00 | 0.48 | 0.48 | 67 | 1011.5 |
| 20260903221508 | 30 | 90 | 0.0 | 0.0 | 0.00 | 0.48 | 0.48 | 65 | 1011.5 |
| 20260903221005 | 30 | 115 | 0.0 | 0.0 | 0.00 | 0.48 | 0.48 | 65 | 1011.5 |
| 20260903220505 | 30 | 178 | 0.0 | 0.0 | 0.00 | 0.48 | 0.48 | 64 | 1011.3 |
| 20260903220003 | 30 | 102 | 0.0 | 0.0 | 0.00 | 0.48 | 0.48 | 65 | 1011.4 |
| 20260903215459 | 30 | 123 | 0.0 | 0.0 | 0.00 | 0.48 | 0.48 | 65 | 1011.3 |
| 20260903214957 | 30 | 159 | 0.0 | 0.0 | 0.00 | 0.48 | 0.48 | 64 | 1011.3 |
| 20260903214452 | 30 | 113 | 0.0 | 0.0 | 0.00 | 0.48 | 0.48 | 64 | 1011.2 |
| 20260903213947 | 30 | 105 | 0.0 | 0.0 | 0.00 | 0.48 | 0.48 | 64 | 1011.2 |
| 20260903213443 | 30 | 41 | 0.0 | 0.0 | 0.00 | 0.48 | 0.48 | 65 | 1011.2 |
| 20260903212938 | 30 | 130 | 0.0 | 0.0 | 0.00 | 0.48 | 0.48 | 64 | 1011.3 |
| 20260903212434 | 31 | 115 | 0.0 | 0.0 | 0.00 | 0.48 | 0.48 | 64 | 1011.4 |
| 20260903211928 | 30 | 129 | 0.0 | 0.0 | 0.00 | 0.48 | 0.48 | 64 | 1011.5 |
| 20260903211424 | 30 | 125 | 0.0 | 0.0 | 0.00 | 0.48 | 0.48 | 65 | 1011.3 |
| 20260903210920 | 30 | 108 | 0.0 | 0.0 | 0.00 | 0.48 | 0.48 | 65 | 1011.3 |
| 20260903210419 | 30 | 117 | 0.0 | 0.0 | 0.00 | 0.48 | 0.48 | 66 | 1011.4 |
| 20260903205915 | 30 | 58 | 0.0 | 0.0 | 0.00 | 0.48 | 0.48 | 64 | 1011.5 |
| 20260903205414 | 30 | 167 | 0.0 | 0.0 | 0.00 | 0.48 | 0.48 | 62 | 1011.5 |
| 20260903204909 | 30 | 104 | 0.0 | 0.0 | 0.00 | 0.48 | 0.48 | 63 | 1011.5 |
| 20260903204405 | 31 | 116 | 0.0 | 0.0 | 0.00 | 0.48 | 0.48 | 62 | 1011.4 |
| 20260903203901 | 31 | 124 | 0.0 | 0.0 | 0.00 | 0.48 | 0.48 | 61 | 1011.5 |
| 20260903203356 | 31 | 111 | 0.0 | 0.0 | 0.00 | 0.48 | 0.48 | 61 | 1011.4 |
| 20260903202855 | 31 | 104 | 0.0 | 0.0 | 0.00 | 0.48 | 0.48 | 60 | 1011.3 |
| 20260903202352 | 30 | 89 | 0.0 | 0.0 | 0.00 | 0.48 | 0.48 | 62 | 1011.3 |
| 20260903201851 | 31 | 108 | 0.0 | 0.0 | 0.00 | 0.48 | 0.48 | 62 | 1011.4 |
| 20260903201347 | 31 | 114 | 0.0 | 0.0 | 0.00 | 0.48 | 0.48 | 61 | 1011.2 |
| 20260903200845 | 31 | 86 | 0.0 | 0.0 | 0.00 | 0.48 | 0.48 | 62 | 1011.4 |
| 20260903200341 | 31 | 155 | 0.0 | 0.0 | 0.00 | 0.48 | 0.48 | 61 | 1011.3 |
| 20260903195836 | 31 | 88 | 0.0 | 0.0 | 0.00 | 0.48 | 0.48 | 62 | 1011.8 |
| 20260903195332 | 31 | 141 | 0.0 | 0.0 | 0.00 | 0.48 | 0.48 | 60 | 1011.7 |
| 20260903194826 | 31 | 178 | 0.0 | 0.0 | 0.00 | 0.48 | 0.48 | 62 | 1011.7 |
| 20260903194322 | 31 | 184 | 0.0 | 0.0 | 0.00 | 0.48 | 0.48 | 61 | 1011.7 |
| 20260903193818 | 31 | 73 | 0.0 | 0.0 | 0.00 | 0.48 | 0.48 | 61 | 1011.8 |
| 20260903193314 | 31 | 110 | 0.0 | 4.8 | 0.00 | 0.48 | 0.48 | 61 | 1011.7 |
| 20260903192809 | 30 | 125 | 0.0 | 1.6 | 0.00 | 0.48 | 0.48 | 63 | 1012.0 |
| 20260903192306 | 30 | 195 | 0.0 | 0.0 | 0.00 | 0.48 | 0.48 | 64 | 1011.9 |
| 20260903191800 | 30 | 212 | 0.0 | 0.0 | 0.00 | 0.48 | 0.48 | 64 | 1011.9 |
| 20260903191256 | 30 | 134 | 4.8 | 11.3 | 0.00 | 0.48 | 0.48 | 64 | 1012.0 |
| 20260903190750 | 30 | 119 | 6.4 | 11.3 | 0.00 | 0.48 | 0.48 | 65 | 1012.2 |
| 20260903190245 | 30 | 158 | 4.8 | 11.3 | 0.00 | 0.48 | 0.48 | 65 | 1012.2 |
| 20260903185740 | 30 | 187 | 1.6 | 3.2 | 0.00 | 0.48 | 0.48 | 65 | 1012.1 |
| 20260903185239 | 30 | 91 | 3.2 | 9.7 | 0.00 | 0.48 | 0.48 | 64 | 1012.3 |
| 20260903184736 | 30 | 207 | 0.0 | 1.6 | 0.00 | 0.48 | 0.48 | 65 | 1012.4 |
| 20260903184231 | 30 | 90 | 6.4 | 11.3 | 0.00 | 0.48 | 0.48 | 65 | 1012.4 |
| 20260903183726 | 30 | 181 | 0.0 | 0.0 | 0.00 | 0.48 | 0.48 | 65 | 1012.3 |
| 20260903183215 | 30 | 84 | 4.8 | 11.3 | 0.00 | 0.48 | 0.48 | 65 | 1012.6 |
| 20260903182713 | 29 | 11 | 3.2 | 9.7 | 0.00 | 0.48 | 0.48 | 67 | 1012.6 |
| 20260903182209 | 30 | 137 | 8.0 | 11.3 | 0.00 | 0.48 | 0.48 | 67 | 1012.4 |
| 20260903181707 | 29 | 107 | 0.0 | 1.6 | 0.00 | 0.48 | 0.48 | 67 | 1012.4 |
| 20260903181156 | 29 | 34 | 3.2 | 9.7 | 0.00 | 0.48 | 0.48 | 68 | 1012.4 |
| 20260903180653 | 29 | 151 | 6.4 | 12.9 | 0.00 | 0.48 | 0.48 | 68 | 1012.6 |
| 20260903180151 | 29 | 118 | 1.6 | 3.2 | 0.00 | 0.48 | 0.48 | 68 | 1012.7 |
| 20260903175650 | 30 | 170 | 0.0 | 0.0 | 0.00 | 0.48 | 0.48 | 66 | 1012.9 |
| 20260903175144 | 29 | 148 | 0.0 | 0.0 | 0.00 | 0.48 | 0.48 | 68 | 1012.9 |
| 20260903174639 | 28 | 167 | 0.0 | 0.0 | 0.00 | 0.48 | 0.48 | 69 | 1012.8 |
| 20260903174134 | 28 | 203 | 0.0 | 0.0 | 0.00 | 0.48 | 0.48 | 69 | 1013.0 |
| 20260903173629 | 28 | 200 | 0.0 | 0.0 | 0.00 | 0.48 | 0.48 | 70 | 1013.1 |
| 20260903173125 | 28 | 158 | 0.0 | 0.0 | 0.00 | 0.48 | 0.48 | 70 | 1013.0 |
| 20260903172619 | 28 | 188 | 0.0 | 0.0 | 0.00 | 0.48 | 0.48 | 71 | 1013.0 |
| 20260903172115 | 28 | 112 | 0.0 | 0.0 | 0.00 | 0.48 | 0.48 | 70 | 1013.1 |
| 20260903171615 | 28 | 169 | 3.2 | 4.8 | 0.00 | 0.48 | 0.48 | 72 | 1013.4 |
| 20260903171111 | 28 | 153 | 4.8 | 11.3 | 0.00 | 0.48 | 0.48 | 70 | 1013.3 |
| 20260903170609 | 28 | 121 | 0.0 | 1.6 | 0.00 | 0.48 | 0.48 | 72 | 1013.4 |
| 20260903170105 | 27 | 92 | 0.0 | 0.0 | 0.00 | 0.48 | 0.48 | 74 | 1013.5 |
| 20260903165603 | 27 | 194 | 3.2 | 4.8 | 0.00 | 0.48 | 0.48 | 74 | 1013.5 |
| 20260903165058 | 27 | 156 | 1.6 | 4.8 | 0.00 | 0.48 | 0.48 | 72 | 1013.6 |
| 20260903164553 | 27 | 125 | 0.0 | 0.0 | 0.00 | 0.48 | 0.48 | 73 | 1013.9 |
| 20260903164048 | 27 | 204 | 3.2 | 11.3 | 0.00 | 0.48 | 0.48 | 74 | 1013.7 |
| 20260903163543 | 27 | 91 | 6.4 | 17.7 | 0.00 | 0.48 | 0.48 | 73 | 1013.9 |
| 20260903163039 | 27 | 145 | 3.2 | 6.4 | 0.00 | 0.48 | 0.48 | 74 | 1013.8 |
| 20260903162535 | 27 | 122 | 6.4 | 17.7 | 0.00 | 0.48 | 0.48 | 73 | 1013.9 |
| 20260903162031 | 27 | 72 | 8.0 | 12.9 | 0.00 | 0.48 | 0.48 | 73 | 1014.0 |
| 20260903161526 | 27 | 312 | 1.6 | 6.4 | 0.00 | 0.48 | 0.48 | 74 | 1013.9 |
| 20260903161022 | 27 | 129 | 0.0 | 0.0 | 0.00 | 0.48 | 0.48 | 74 | 1013.7 |
| 20260903160521 | 27 | 144 | 1.6 | 6.4 | 0.00 | 0.48 | 0.48 | 74 | 1014.1 |
| 20260903160015 | 26 | 94 | 4.8 | 11.3 | 0.00 | 0.48 | 0.48 | 75 | 1014.2 |
| 20260903155509 | 26 | 165 | 3.2 | 6.4 | 0.00 | 0.48 | 0.48 | 76 | 1013.9 |